BAW460 EGLL-LEMD

Flight info

Callsign BAW460
Flight time 1h 50m
Altitude 33000
Route GASGU N866 SAM M195 MARUK N621 LELNA DCT ERCOZ DCT NOVAN DCT DELOG N864 VADOX DCT SNR N864 NONTU
Aircraft B77W/H-SDE1E3FGHIJ3J4J5J6M1M2P2RWXYZ/LB1D1

Departure

Time 2026-05-04 22:57
Airport London Heathrow Airport (EGLL)

Arrival

Time 2026-05-05 00:47
Airport Adolfo Suárez Madrid–Barajas Airport (LEMD)
Time Latitude Longitude Altitude Speed Heading
2026-05-04 22:34 51.46981 -0.48237 84 ft 0 kts 90°
2026-05-04 22:46 51.46981 -0.48258 84 ft 2 kts 90°
2026-05-04 22:47 51.46982 -0.48282 84 ft 2 kts 102°
2026-05-04 22:47 51.46987 -0.48305 84 ft 2 kts 120°
2026-05-04 22:47 51.46995 -0.48325 84 ft 2 kts 134°
2026-05-04 22:47 51.47007 -0.48341 84 ft 2 kts 148°
2026-05-04 22:48 51.47020 -0.48352 84 ft 2 kts 163°
2026-05-04 22:48 51.47035 -0.48357 84 ft 1 kts 177°
2026-05-04 22:48 51.47040 -0.48357 84 ft 0 kts 181°
2026-05-04 22:50 51.47033 -0.48357 84 ft 3 kts 180°
2026-05-04 22:50 51.46986 -0.48357 84 ft 10 kts 181°
2026-05-04 22:50 51.46911 -0.48356 84 ft 10 kts 180°
2026-05-04 22:51 51.46848 -0.48355 84 ft 2 kts 179°
2026-05-04 22:51 51.46819 -0.48354 84 ft 6 kts 180°
2026-05-04 22:51 51.46758 -0.48374 84 ft 9 kts 224°
2026-05-04 22:51 51.46741 -0.48494 84 ft 13 kts 269°
2026-05-04 22:52 51.46740 -0.48631 84 ft 8 kts 269°
2026-05-04 22:52 51.46732 -0.48717 84 ft 7 kts 238°
2026-05-04 22:52 51.46684 -0.48748 84 ft 8 kts 180°
2026-05-04 22:52 51.46640 -0.48751 84 ft 4 kts 188°
2026-05-04 22:53 51.46621 -0.48756 84 ft 0 kts 193°
2026-05-04 22:53 51.46582 -0.48774 84 ft 8 kts 194°
2026-05-04 22:53 51.46520 -0.48775 84 ft 9 kts 166°
2026-05-04 22:54 51.46479 -0.48706 84 ft 9 kts 101°
2026-05-04 22:54 51.46478 -0.48635 84 ft 0 kts 89°
2026-05-04 22:56 51.46478 -0.48591 84 ft 13 kts 89°
2026-05-04 22:56 51.46478 -0.48104 84 ft 84 kts 90°
2026-05-04 22:57 51.46484 -0.46753 120 ft 154 kts 88°
2026-05-04 22:57 51.46500 -0.44918 788 ft 169 kts 87°
2026-05-04 22:57 51.46532 -0.43114 1726 ft 164 kts 85°
2026-05-04 22:57 51.46471 -0.41187 2111 ft 185 kts 103°
2026-05-04 22:58 51.45814 -0.39329 2473 ft 206 kts 127°
2026-05-04 22:58 51.44825 -0.37561 2847 ft 221 kts 127°
2026-05-04 22:58 51.43875 -0.35565 3293 ft 230 kts 124°
2026-05-04 22:58 51.42732 -0.33659 3805 ft 247 kts 145°
2026-05-04 22:59 51.41101 -0.32604 4324 ft 265 kts 171°
2026-05-04 22:59 51.39267 -0.32843 5021 ft 273 kts 200°
2026-05-04 22:59 51.37658 -0.34374 5828 ft 274 kts 220°
2026-05-04 22:59 51.36236 -0.36395 6700 ft 275 kts 224°
2026-05-04 23:00 51.34815 -0.38489 7483 ft 280 kts 223°
2026-05-04 23:00 51.33370 -0.40592 8269 ft 283 kts 223°
2026-05-04 23:00 51.31914 -0.42682 9013 ft 287 kts 225°
2026-05-04 23:00 51.30731 -0.45297 9721 ft 292 kts 243°
2026-05-04 23:01 51.29941 -0.48274 10400 ft 298 kts 251°
2026-05-04 23:01 51.29285 -0.51514 10809 ft 315 kts 253°
2026-05-04 23:01 51.28661 -0.54920 11233 ft 331 kts 254°
2026-05-04 23:01 51.28000 -0.58539 11680 ft 347 kts 253°
2026-05-04 23:02 51.27271 -0.62307 12196 ft 362 kts 253°
2026-05-04 23:02 51.26519 -0.66150 12956 ft 369 kts 252°
2026-05-04 23:02 51.25753 -0.70070 13808 ft 375 kts 252°
2026-05-04 23:02 51.24977 -0.74044 14706 ft 381 kts 252°
2026-05-04 23:03 51.24183 -0.78102 15678 ft 386 kts 252°
2026-05-04 23:03 51.23382 -0.82191 16675 ft 391 kts 252°
2026-05-04 23:03 51.22564 -0.86359 17565 ft 397 kts 251°
2026-05-04 23:03 51.21733 -0.90544 18468 ft 402 kts 250°
2026-05-04 23:04 51.20571 -0.94657 19427 ft 405 kts 239°
2026-05-04 23:04 51.18955 -0.98378 20417 ft 405 kts 228°
2026-05-04 23:04 51.17034 -1.01584 21344 ft 406 kts 223°
2026-05-04 23:04 51.15020 -1.04699 22264 ft 409 kts 222°
2026-05-04 23:05 51.12944 -1.07891 23123 ft 413 kts 222°
2026-05-04 23:05 51.10885 -1.11051 23973 ft 415 kts 222°
2026-05-04 23:05 51.08802 -1.14244 24811 ft 418 kts 222°
2026-05-04 23:05 51.06707 -1.17451 25596 ft 421 kts 222°
2026-05-04 23:06 51.04613 -1.20653 26354 ft 424 kts 222°
2026-05-04 23:06 51.02455 -1.23949 27082 ft 428 kts 222°
2026-05-04 23:06 51.00304 -1.27230 27758 ft 432 kts 222°
2026-05-04 23:06 50.98136 -1.30530 28454 ft 436 kts 222°
2026-05-04 23:07 50.95933 -1.33788 29133 ft 439 kts 218°
2026-05-04 23:07 50.93478 -1.36632 29892 ft 439 kts 212°
2026-05-04 23:07 50.90944 -1.39288 30883 ft 435 kts 212°
2026-05-04 23:07 50.88444 -1.41778 31808 ft 428 kts 207°
2026-05-04 23:08 50.85765 -1.43938 32424 ft 428 kts 205°
2026-05-04 23:08 50.83070 -1.46036 32878 ft 432 kts 205°
2026-05-04 23:08 50.80364 -1.48136 33004 ft 436 kts 205°
2026-05-04 23:08 50.77640 -1.50249 33013 ft 435 kts 205°
2026-05-04 23:09 50.72219 -1.54446 33011 ft 432 kts 205°
2026-05-04 23:09 50.66816 -1.58617 33015 ft 432 kts 205°
2026-05-04 23:10 50.61397 -1.62791 33011 ft 431 kts 205°
2026-05-04 23:10 50.56045 -1.66902 33004 ft 429 kts 204°
2026-05-04 23:11 50.50658 -1.71029 33006 ft 431 kts 204°
2026-05-04 23:11 50.45284 -1.75136 33005 ft 429 kts 204°
2026-05-04 23:12 50.39928 -1.79220 33004 ft 429 kts 204°
2026-05-04 23:12 50.34535 -1.83320 33001 ft 430 kts 204°
2026-05-04 23:13 50.29174 -1.87386 33001 ft 430 kts 204°
2026-05-04 23:13 50.23779 -1.91468 33003 ft 430 kts 204°
2026-05-04 23:14 50.18391 -1.95535 32996 ft 430 kts 204°
2026-05-04 23:14 50.13034 -1.99567 32978 ft 428 kts 204°
2026-05-04 23:15 50.07684 -2.03585 32983 ft 428 kts 204°
2026-05-04 23:15 50.02285 -2.07630 32989 ft 428 kts 204°
2026-05-04 23:16 49.96979 -2.11817 32984 ft 431 kts 208°
2026-05-04 23:16 49.91868 -2.16629 32987 ft 431 kts 209°
2026-05-04 23:17 49.86756 -2.21443 32992 ft 431 kts 209°
2026-05-04 23:17 49.81576 -2.26300 32993 ft 432 kts 209°
2026-05-04 23:18 49.76447 -2.31095 32991 ft 432 kts 209°
2026-05-04 23:18 49.71310 -2.35886 32994 ft 432 kts 209°
2026-05-04 23:19 49.68695 -2.38316 32996 ft 444 kts 208°
2026-05-04 23:19 49.66007 -2.40811 33111 ft 456 kts 209°
2026-05-04 23:19 49.63299 -2.43323 33499 ft 459 kts 209°
2026-05-04 23:19 49.60548 -2.45873 33978 ft 459 kts 209°
2026-05-04 23:20 49.57836 -2.48384 34435 ft 459 kts 209°
2026-05-04 23:20 49.55052 -2.50958 34873 ft 460 kts 210°
2026-05-04 23:20 49.52323 -2.53477 35274 ft 462 kts 210°
2026-05-04 23:20 49.49575 -2.56010 35694 ft 463 kts 210°
2026-05-04 23:21 49.46822 -2.58544 36133 ft 463 kts 210°
2026-05-04 23:21 49.44056 -2.61087 36556 ft 462 kts 210°
2026-05-04 23:21 49.41300 -2.63617 36903 ft 464 kts 210°
2026-05-04 23:21 49.38495 -2.66188 36982 ft 467 kts 209°
2026-05-04 23:22 49.32884 -2.71324 36999 ft 464 kts 209°
2026-05-04 23:22 49.27276 -2.76441 36990 ft 466 kts 209°
2026-05-04 23:23 49.21728 -2.81490 36989 ft 466 kts 209°
2026-05-04 23:23 49.16164 -2.86541 36990 ft 465 kts 209°
2026-05-04 23:24 49.10675 -2.91510 36991 ft 467 kts 209°
2026-05-04 23:24 49.05043 -2.96595 36988 ft 476 kts 209°
2026-05-04 23:25 48.99337 -3.01733 36989 ft 476 kts 209°
2026-05-04 23:25 48.93634 -3.06856 36992 ft 476 kts 209°
2026-05-04 23:26 48.87923 -3.11971 36983 ft 476 kts 210°
2026-05-04 23:26 48.82241 -3.17046 36982 ft 476 kts 210°
2026-05-04 23:27 48.76508 -3.22154 36981 ft 477 kts 210°
2026-05-04 23:27 48.70792 -3.27233 36982 ft 477 kts 210°
2026-05-04 23:28 48.65065 -3.32309 36989 ft 477 kts 210°
2026-05-04 23:28 48.59314 -3.37391 36978 ft 477 kts 210°
2026-05-04 23:29 48.53628 -3.42403 36980 ft 477 kts 209°
2026-05-04 23:29 48.47877 -3.47459 36978 ft 478 kts 210°
2026-05-04 23:30 48.42136 -3.52493 36974 ft 477 kts 209°
2026-05-04 23:30 48.36356 -3.57368 36975 ft 477 kts 204°
2026-05-04 23:31 48.30029 -3.60083 36971 ft 474 kts 186°
2026-05-04 23:31 48.23418 -3.60650 36970 ft 474 kts 182°
2026-05-04 23:32 48.16828 -3.61020 36971 ft 475 kts 182°
2026-05-04 23:32 48.10215 -3.61369 36963 ft 474 kts 181°
2026-05-04 23:33 48.03584 -3.61709 36963 ft 474 kts 181°
2026-05-04 23:33 47.96998 -3.62065 36431 ft 484 kts 182°
2026-05-04 23:34 47.93638 -3.62326 35861 ft 480 kts 182°
2026-05-04 23:34 47.90345 -3.62549 36040 ft 462 kts 181°
2026-05-04 23:34 47.87100 -3.62669 36255 ft 468 kts 181°
2026-05-04 23:34 47.83823 -3.62791 36470 ft 474 kts 181°
2026-05-04 23:35 47.80534 -3.62925 36679 ft 473 kts 181°
2026-05-04 23:35 47.77261 -3.63065 36892 ft 473 kts 181°
2026-05-04 23:35 47.70610 -3.63366 36973 ft 474 kts 181°
2026-05-04 23:36 47.64020 -3.63674 36972 ft 473 kts 181°
2026-05-04 23:36 47.57425 -3.63988 36969 ft 474 kts 181°
2026-05-04 23:37 47.50820 -3.64305 36966 ft 474 kts 181°
2026-05-04 23:37 47.44233 -3.64622 36971 ft 473 kts 181°
2026-05-04 23:38 47.37632 -3.64939 36963 ft 474 kts 181°
2026-05-04 23:38 47.31053 -3.65255 36965 ft 472 kts 181°
2026-05-04 23:39 47.24481 -3.65570 36962 ft 473 kts 181°
2026-05-04 23:39 47.17883 -3.65886 36966 ft 473 kts 181°
2026-05-04 23:40 47.11340 -3.66198 36960 ft 471 kts 181°
2026-05-04 23:40 47.04770 -3.66511 36964 ft 472 kts 181°
2026-05-04 23:41 46.98198 -3.66823 36966 ft 472 kts 181°
2026-05-04 23:41 46.91627 -3.67135 36974 ft 472 kts 181°
2026-05-04 23:42 46.85017 -3.67447 36982 ft 472 kts 181°
2026-05-04 23:42 46.78393 -3.67760 36978 ft 472 kts 181°
2026-05-04 23:43 46.71830 -3.68068 36977 ft 471 kts 181°
2026-05-04 23:43 46.65246 -3.68377 36988 ft 473 kts 181°
2026-05-04 23:44 46.58707 -3.68683 36982 ft 472 kts 181°
2026-05-04 23:44 46.52126 -3.68991 36984 ft 471 kts 181°
2026-05-04 23:45 46.45584 -3.69296 36980 ft 471 kts 181°
2026-05-04 23:45 46.39005 -3.69602 36979 ft 472 kts 181°
2026-05-04 23:46 46.32433 -3.69906 36978 ft 471 kts 181°
2026-05-04 23:46 46.25889 -3.70727 36979 ft 472 kts 186°
2026-05-04 23:47 46.19397 -3.71761 36977 ft 472 kts 186°
2026-05-04 23:47 46.12865 -3.72769 36977 ft 471 kts 186°
2026-05-04 23:48 46.06302 -3.73763 36977 ft 473 kts 186°
2026-05-04 23:48 45.99765 -3.74742 36979 ft 472 kts 186°
2026-05-04 23:49 45.93211 -3.75716 36986 ft 472 kts 186°
2026-05-04 23:49 45.86685 -3.76682 36980 ft 471 kts 186°
2026-05-04 23:50 45.80135 -3.77648 36991 ft 472 kts 186°
2026-05-04 23:50 45.73619 -3.78606 36982 ft 471 kts 186°
2026-05-04 23:51 45.67043 -3.79570 36991 ft 472 kts 186°
2026-05-04 23:51 45.60542 -3.80521 36984 ft 471 kts 186°
2026-05-04 23:52 45.54012 -3.81473 36979 ft 471 kts 186°
2026-05-04 23:52 45.47500 -3.82421 36984 ft 471 kts 186°
2026-05-04 23:53 45.40968 -3.83369 36988 ft 472 kts 186°
2026-05-04 23:53 45.34457 -3.84312 36984 ft 470 kts 187°
2026-05-04 23:54 45.27942 -3.85254 36987 ft 471 kts 186°
2026-05-04 23:54 45.21393 -3.86198 36986 ft 472 kts 186°
2026-05-04 23:55 45.14896 -3.87133 36990 ft 471 kts 187°
2026-05-04 23:56 45.05112 -3.88536 36987 ft 471 kts 187°
2026-05-04 23:56 44.98626 -3.89464 36989 ft 471 kts 187°
2026-05-04 23:57 44.92084 -3.90398 36993 ft 472 kts 187°
2026-05-04 23:57 44.85545 -3.91329 36992 ft 471 kts 187°
2026-05-04 23:58 44.79007 -3.92258 36994 ft 472 kts 187°
2026-05-04 23:58 44.72479 -3.93183 36991 ft 471 kts 187°
2026-05-04 23:59 44.65915 -3.94111 36989 ft 472 kts 187°
2026-05-04 23:59 44.59374 -3.95034 36990 ft 471 kts 187°
2026-05-05 00:00 44.52873 -3.95949 36991 ft 471 kts 187°
2026-05-05 00:00 44.46347 -3.96865 36992 ft 472 kts 187°
2026-05-05 00:01 44.39856 -3.97775 36990 ft 471 kts 187°
2026-05-05 00:01 44.33306 -3.98618 36984 ft 471 kts 183°
2026-05-05 00:02 44.26790 -3.98165 36991 ft 473 kts 178°
2026-05-05 00:02 44.20224 -3.97515 36989 ft 473 kts 178°
2026-05-05 00:03 44.13605 -3.96865 36999 ft 473 kts 178°
2026-05-05 00:03 44.07019 -3.96220 37006 ft 473 kts 178°
2026-05-05 00:04 44.00438 -3.95579 37009 ft 473 kts 178°
2026-05-05 00:04 43.93862 -3.94940 37012 ft 473 kts 178°
2026-05-05 00:05 43.87260 -3.94300 37020 ft 473 kts 178°
2026-05-05 00:05 43.80665 -3.93663 37023 ft 472 kts 179°
2026-05-05 00:06 43.74112 -3.93031 37024 ft 474 kts 179°
2026-05-05 00:06 43.67520 -3.92397 37034 ft 472 kts 179°
2026-05-05 00:07 43.60941 -3.91766 37027 ft 472 kts 179°
2026-05-05 00:07 43.54378 -3.91138 37027 ft 472 kts 179°
2026-05-05 00:08 43.47762 -3.90507 37037 ft 473 kts 179°
2026-05-05 00:08 43.41175 -3.90792 37034 ft 470 kts 188°
2026-05-05 00:09 43.34707 -3.91755 37035 ft 469 kts 189°
2026-05-05 00:09 43.28200 -3.92724 37042 ft 469 kts 189°
2026-05-05 00:10 43.21747 -3.93681 37024 ft 468 kts 188°
2026-05-05 00:10 43.15278 -3.94636 37025 ft 467 kts 189°
2026-05-05 00:11 43.08782 -3.95593 37023 ft 467 kts 189°
2026-05-05 00:11 43.02313 -3.96544 37022 ft 467 kts 189°
2026-05-05 00:12 42.95837 -3.97493 37022 ft 469 kts 189°
2026-05-05 00:12 42.89346 -3.98442 37016 ft 468 kts 189°
2026-05-05 00:13 42.82828 -3.99393 37007 ft 468 kts 189°
2026-05-05 00:13 42.76378 -4.00332 37012 ft 466 kts 189°
2026-05-05 00:14 42.69868 -4.01278 37008 ft 466 kts 189°
2026-05-05 00:14 42.63412 -4.02213 37012 ft 466 kts 189°
2026-05-05 00:15 42.56938 -4.03150 37012 ft 465 kts 189°
2026-05-05 00:15 42.50490 -4.04081 37019 ft 464 kts 189°
2026-05-05 00:16 42.44042 -4.05011 37013 ft 467 kts 190°
2026-05-05 00:16 42.37548 -4.05944 37017 ft 465 kts 190°
2026-05-05 00:17 42.31074 -4.06873 37009 ft 466 kts 190°
2026-05-05 00:17 42.24611 -4.07798 37009 ft 465 kts 190°
2026-05-05 00:18 42.18193 -4.08715 37002 ft 464 kts 190°
2026-05-05 00:18 42.11715 -4.09639 36991 ft 464 kts 190°
2026-05-05 00:19 42.05323 -4.10548 36991 ft 463 kts 191°
2026-05-05 00:19 41.98899 -4.11389 36989 ft 463 kts 189°
2026-05-05 00:20 41.92432 -4.12113 36987 ft 463 kts 189°
2026-05-05 00:20 41.86201 -4.12814 36997 ft 464 kts 189°
2026-05-05 00:21 41.79626 -4.13556 37003 ft 462 kts 190°
2026-05-05 00:21 41.73182 -4.14285 37016 ft 462 kts 190°
2026-05-05 00:22 41.66771 -4.15010 37006 ft 461 kts 190°
2026-05-05 00:22 41.60361 -4.15734 37015 ft 459 kts 190°
2026-05-05 00:23 41.53968 -4.16456 37015 ft 461 kts 190°
2026-05-05 00:23 41.47575 -4.17173 36627 ft 453 kts 191°
2026-05-05 00:23 41.44395 -4.17532 35834 ft 456 kts 191°
2026-05-05 00:24 41.41223 -4.17890 34971 ft 460 kts 191°
2026-05-05 00:24 41.38042 -4.18249 34104 ft 463 kts 192°
2026-05-05 00:24 41.34779 -4.18616 33266 ft 465 kts 192°
2026-05-05 00:24 41.31546 -4.18978 32334 ft 467 kts 192°
2026-05-05 00:25 41.28312 -4.19341 31385 ft 469 kts 192°
2026-05-05 00:25 41.25027 -4.19688 30560 ft 468 kts 191°
2026-05-05 00:25 41.21818 -4.19884 30036 ft 461 kts 191°
2026-05-05 00:25 41.18605 -4.20060 29478 ft 454 kts 191°
2026-05-05 00:26 41.15491 -4.20235 28901 ft 448 kts 191°
2026-05-05 00:26 41.12380 -4.20414 28312 ft 442 kts 191°
2026-05-05 00:26 41.09317 -4.20594 27723 ft 437 kts 190°
2026-05-05 00:26 41.06284 -4.20773 27112 ft 432 kts 190°
2026-05-05 00:27 41.03325 -4.20950 26519 ft 427 kts 189°
2026-05-05 00:27 41.00386 -4.21126 25907 ft 422 kts 189°
2026-05-05 00:27 40.97456 -4.21302 25291 ft 417 kts 189°
2026-05-05 00:27 40.94567 -4.21476 24668 ft 412 kts 189°
2026-05-05 00:28 40.91715 -4.21648 24048 ft 407 kts 188°
2026-05-05 00:28 40.88900 -4.21818 23404 ft 402 kts 188°
2026-05-05 00:28 40.86093 -4.21987 22796 ft 396 kts 188°
2026-05-05 00:28 40.83348 -4.22152 22196 ft 390 kts 188°
2026-05-05 00:29 40.80596 -4.22318 21595 ft 384 kts 188°
2026-05-05 00:29 40.77924 -4.22478 21015 ft 379 kts 188°
2026-05-05 00:29 40.75249 -4.22640 20427 ft 374 kts 188°
2026-05-05 00:29 40.72665 -4.22796 19854 ft 371 kts 188°
2026-05-05 00:30 40.70064 -4.22956 19281 ft 380 kts 188°
2026-05-05 00:30 40.67410 -4.23117 18692 ft 380 kts 188°
2026-05-05 00:30 40.64734 -4.23277 18092 ft 378 kts 187°
2026-05-05 00:30 40.62075 -4.23435 17481 ft 374 kts 187°
2026-05-05 00:31 40.59415 -4.23594 16878 ft 371 kts 187°
2026-05-05 00:31 40.56832 -4.23749 16282 ft 368 kts 187°
2026-05-05 00:31 40.54284 -4.23873 15706 ft 367 kts 183°
2026-05-05 00:31 40.51729 -4.23430 15117 ft 371 kts 170°
2026-05-05 00:32 40.49290 -4.22342 14548 ft 370 kts 163°
2026-05-05 00:32 40.46901 -4.21125 13967 ft 368 kts 163°
2026-05-05 00:32 40.44507 -4.19895 13395 ft 365 kts 163°
2026-05-05 00:32 40.42181 -4.18701 12839 ft 362 kts 162°
2026-05-05 00:33 40.39821 -4.17491 12271 ft 359 kts 162°
2026-05-05 00:33 40.37538 -4.16241 11709 ft 357 kts 155°
2026-05-05 00:33 40.35525 -4.14379 11148 ft 359 kts 140°
2026-05-05 00:33 40.33956 -4.11830 10735 ft 356 kts 122°
2026-05-05 00:34 40.32945 -4.08850 10641 ft 359 kts 112°
2026-05-05 00:34 40.32140 -4.05839 10514 ft 343 kts 110°
2026-05-05 00:34 40.31395 -4.02948 10371 ft 330 kts 110°
2026-05-05 00:34 40.30677 -4.00130 10218 ft 318 kts 110°
2026-05-05 00:35 40.30003 -3.97465 10045 ft 306 kts 110°
2026-05-05 00:35 40.29339 -3.94831 9910 ft 295 kts 110°
2026-05-05 00:35 40.28704 -3.92313 9771 ft 289 kts 110°
2026-05-05 00:35 40.28077 -3.89831 9615 ft 287 kts 110°
2026-05-05 00:36 40.27450 -3.87349 9463 ft 288 kts 110°
2026-05-05 00:36 40.26819 -3.84851 9311 ft 288 kts 110°
2026-05-05 00:36 40.26193 -3.82374 9155 ft 287 kts 110°
2026-05-05 00:36 40.25567 -3.79901 9005 ft 285 kts 110°
2026-05-05 00:37 40.24948 -3.77457 8848 ft 284 kts 110°
2026-05-05 00:37 40.24331 -3.75027 8703 ft 283 kts 110°
2026-05-05 00:37 40.23706 -3.72566 8556 ft 282 kts 110°
2026-05-05 00:37 40.23094 -3.70157 8423 ft 282 kts 110°
2026-05-05 00:38 40.22475 -3.67722 8272 ft 282 kts 110°
2026-05-05 00:38 40.21854 -3.65285 8130 ft 281 kts 109°
2026-05-05 00:38 40.21235 -3.62857 7979 ft 280 kts 109°
2026-05-05 00:38 40.20619 -3.60442 7833 ft 279 kts 109°
2026-05-05 00:39 40.20012 -3.58066 7694 ft 277 kts 109°
2026-05-05 00:39 40.19395 -3.55654 7553 ft 277 kts 109°
2026-05-05 00:39 40.18792 -3.53294 7400 ft 276 kts 109°
2026-05-05 00:39 40.18185 -3.50926 7258 ft 276 kts 110°
2026-05-05 00:40 40.17669 -3.48505 7102 ft 275 kts 96°
2026-05-05 00:40 40.17898 -3.46067 6943 ft 268 kts 67°
2026-05-05 00:40 40.18892 -3.44033 6822 ft 263 kts 47°
2026-05-05 00:40 40.20154 -3.42322 6706 ft 259 kts 41°
2026-05-05 00:41 40.21565 -3.40885 6554 ft 260 kts 29°
2026-05-05 00:41 40.23132 -3.39739 6429 ft 256 kts 26°
2026-05-05 00:41 40.24695 -3.38664 6263 ft 255 kts 20°
2026-05-05 00:41 40.26424 -3.38164 5962 ft 250 kts
2026-05-05 00:42 40.28084 -3.38002 5764 ft 230 kts
2026-05-05 00:42 40.29661 -3.37885 5659 ft 221 kts
2026-05-05 00:42 40.31167 -3.37975 5562 ft 211 kts 343°
2026-05-05 00:42 40.32482 -3.38716 5450 ft 202 kts 327°
2026-05-05 00:43 40.33645 -3.39755 5295 ft 200 kts 321°
2026-05-05 00:43 40.34728 -3.40854 5049 ft 196 kts 320°
2026-05-05 00:43 40.35792 -3.41954 4803 ft 194 kts 320°
2026-05-05 00:43 40.36861 -3.43044 4552 ft 193 kts 321°
2026-05-05 00:44 40.37933 -3.44127 4301 ft 191 kts 321°
2026-05-05 00:44 40.38995 -3.45195 4049 ft 190 kts 321°
2026-05-05 00:44 40.40044 -3.46252 3794 ft 185 kts 321°
2026-05-05 00:44 40.41032 -3.47249 3557 ft 172 kts 321°
2026-05-05 00:45 40.41955 -3.48182 3334 ft 161 kts 321°
2026-05-05 00:45 40.42816 -3.49051 3125 ft 155 kts 322°
2026-05-05 00:45 40.43663 -3.49904 2918 ft 153 kts 322°
2026-05-05 00:45 40.44514 -3.50730 2699 ft 152 kts 323°
2026-05-05 00:46 40.45350 -3.51573 2478 ft 152 kts 321°
2026-05-05 00:46 40.46197 -3.52426 2280 ft 152 kts 321°
2026-05-05 00:46 40.47027 -3.53273 2074 ft 150 kts 321°
2026-05-05 00:46 40.47845 -3.54108 1970 ft 143 kts 321°
2026-05-05 00:47 40.48551 -3.54827 1966 ft 110 kts 322°
2026-05-05 00:47 40.49060 -3.55344 1966 ft 75 kts 321°
2026-05-05 00:47 40.49382 -3.55667 1966 ft 39 kts 322°
2026-05-05 00:47 40.49497 -3.55822 1966 ft 18 kts 270°
2026-05-05 00:48 40.49437 -3.55959 1966 ft 17 kts 232°
2026-05-05 00:48 40.49409 -3.56108 1966 ft 16 kts 269°
2026-05-05 00:48 40.49395 -3.56226 1966 ft 10 kts 212°
2026-05-05 00:48 40.49295 -3.56242 1966 ft 16 kts 181°
2026-05-05 00:49 40.49182 -3.56242 1966 ft 16 kts 180°
2026-05-05 00:49 40.49069 -3.56242 1966 ft 16 kts 180°
2026-05-05 00:49 40.48953 -3.56242 1966 ft 17 kts 180°
2026-05-05 00:49 40.48867 -3.56308 1966 ft 15 kts 258°
2026-05-05 00:50 40.48861 -3.56454 1966 ft 16 kts 271°
2026-05-05 00:50 40.48949 -3.56540 1966 ft 21 kts 353°
2026-05-05 00:50 40.49088 -3.56544 1966 ft 10 kts 359°
2026-05-05 00:50 40.49136 -3.56570 1966 ft 3 kts 284°
2026-05-05 00:51 40.49144 -3.56622 1966 ft 6 kts 267°
2026-05-05 00:51 40.49144 -3.56641 1966 ft 0 kts 269°